Погода в Несауалькойотле

Мексика     19°25′10″N   99°02′49″W
темп.,
°C
ветер,
м/с
пор.,
м/с
влажн.,
%
обл.,
%
осадки,
мм/ч
давл.,
гПа
погр.,
м
10 апреля, сб
сб1001:00+19ююв133893 0.4 1014469
04:00+18ю34365 0.0 1012364
07:00+17ююв22420 0.0 1013274
10:00+20ююз11310 0.0 1014753
13:00+25з11170 0.0 10111364
16:00+28сз3290 0.0 10062314
19:00+26ююв541588 0.0 10052299
22:00+24юв222157 0.0 10081834
11 апреля, вс
вс1101:00+22юв46250 0.0 1010677
04:00+19ю35302 0.0 1009521
07:00+18ююв23340 0.0 1011424
10:00+21ююз11273 0.0 1012834
13:00+26зюз12170 0.0 10092183
16:00+28всв23141 0.0 10053010
19:00+27ююз4416100 0.0 10043398
22:00+24ю332033 0.0 10082053
12 апреля, пн
пн1201:00+22ююв232442 0.0 1010752
04:00+21ю2325100 0.0 1009431
07:00+20юв11275 0.0 1010140
10:00+22юз11224 0.0 1011940
13:00+26зсз23174 0.0 10092376
16:00+28вюв541534 0.0 10043792
19:00+26юз441990 0.0 10052775
22:00+24ссв4326100 0.1 10102695
13 апреля, вт
вт1301:00+22в343297 0.1 1012670
04:00+21ююв21335 0.0 1011676
07:00+19юв12373 0.0 1012387
10:00+22вюв00305 0.0 1013841
13:00+26зсз342222 0.0 10102653
16:00+26вюв532466 0.1 10082039
19:00+25юз7727100 0.3 10072871
22:00+17ссв555899 1.6 1016494
14 апреля, ср
ср1401:00+17ссв3455100 1.9 1017702
04:00+18з234963 0.3 1015586
07:00+18юв124646 0.3 1014463
10:00+21ююз1137100 0.0 1015962
13:00+25сз232491 0.0 10132154
16:00+27ссз3219100 0.0 10092834
19:00+24сз742994 0.1 10101725
22:00+17св4559100 5.6 1018412